Flag for Germany Weather past 2 weeks in Germering, Bavaria, Germany

Now
43 °F

Partly sunny.


Feels Like: 39 °F
Forecast: 33 / 58 °F
Wind: 7 mph from West

Location: Oberpfaffenhofen

Current Time: Apr 28, 2015 at 6:03:59 PM

Latest Report: Apr 28, 2015 at 5:20 PM


Visibility: N/A

Pressure: 30.07 "Hg

Humidity: 87%

Dew point: 39 °F

Location of GermeringLocation

Historic Weather in Germering — Graph

°F

Germering temperature yesterday

Maximum temperature yesterday: 70 °F (at 3:50 PM)
Minimum temperature yesterday: 45 °F (at 6:50 AM)
Average temperature yesterday: 62 °F

Past Weeks' High & Low Weather Summary

 TemperatureHumidityPressure
High73 °F (Apr 15, 3:20 PM)100% (Apr 17, 7:50 PM)30.42 "Hg (Apr 17, 7:50 PM)
Low28 °F (Apr 20, 6:50 AM)17% (Apr 15, 4:20 PM)29.47 "Hg (Apr 27, 6:50 PM)
Average55 °F55%30.07 "Hg
* Reported Apr 13 4:20 PM — Apr 28 4:50 PM, Germering, Weather by CustomWeather, © 2015

Note: Actual official high and low records may vary slightly from our data, if they occured in-between our weather recording intervals... More about our weather records

Advertising

Germering weather history for previous 24 hours

 ConditionsComfort  
Time TempWeatherWind HumidityBarometerVisibility
4:50 PM
Tue, Apr 28
43 °FPartly sunny.10 mph87%30.07 "HgN/A
4:20 PM45 °FQuite cool.9 mph87%30.04 "HgN/A
3:50 PM43 °FBroken clouds.12 mph93%30.04 "HgN/A
3:20 PM43 °FBroken clouds.12 mph87%30.04 "HgN/A
2:50 PM43 °FSprinkles. Broken clouds.14 mph87%30.01 "HgN/A
2:20 PM43 °FSprinkles. Broken clouds.14 mph93%29.98 "HgN/A
1:50 PM43 °FLight rain. Partly sunny.13 mph93%29.98 "HgN/A
1:20 PM43 °FLight rain. Partly sunny.13 mph93%29.95 "Hg6 mi
12:50 PM43 °FLight rain. Mostly cloudy.15 mph93%29.95 "HgN/A
12:20 PM43 °FLight rain. Mostly cloudy.16 mph93%29.92 "Hg6 mi
11:50 AM43 °FLight rain. Mostly cloudy.15 mph93%29.92 "HgN/A
11:20 AM43 °FLight rain. Partly sunny.16 mph93%29.89 "HgN/A
10:50 AM43 °FLight rain. Partly sunny.18 mph93%29.89 "Hg6 mi
10:20 AM45 °FRain. Partly sunny.13 mph93%29.86 "Hg5 mi
9:50 AM45 °FLight rain. Partly sunny.13 mph93%29.83 "Hg5 mi
9:20 AM45 °FLight rain. Partly sunny.15 mph93%29.80 "Hg5 mi
8:50 AM45 °FLight rain. Partly sunny.15 mph93%29.77 "Hg4 mi
8:20 AM46 °FLight rain. Partly sunny.14 mph93%29.74 "Hg3 mi
7:50 AM46 °FLight rain. Partly sunny.13 mph100%29.71 "Hg3 mi
7:20 AM46 °FLight rain. Partly sunny.16 mph100%29.68 "Hg3 mi
6:50 AM50 °FLight rain. Passing clouds.7 mph94%29.65 "Hg4 mi
7:20 PM
Mon, Apr 27
66 °FSunny.8 mph52%29.47 "Hg10 mi
6:50 PM66 °FSunny.9 mph49%29.47 "Hg10 mi
6:20 PM68 °FSunny.10 mph49%29.50 "Hg10 mi
Weather by CustomWeather, © 2015

See weather overviewHow to use our weather pages